K5WPH Weather Reports


Display with metric or nautical units.
time (UTC)temp
F
wind
direction
speed
MPH
gust
MPH
rain 1hr
in
rain 24hr
in
rain mn
in
humidity
%
barometer
mb
20260901045625 82 314 0.0 0.0 0.01 0.00 0.00 6
20260901045124 82 314 0.0 0.0 0.01 0.00 0.00 6
20260901044624 82 314 0.0 0.0 0.01 0.00 0.00 5
20260901044124 82 314 0.0 0.0 0.01 0.00 0.00 5
20260901043624 82 314 0.0 0.0 0.01 0.00 0.00 5
20260901043124 81 314 0.0 0.0 0.01 0.00 0.00 5
20260901042624 81 314 0.0 0.0 0.01 0.00 0.00 6
20260901042124 80 298 0.0 0.0 0.01 0.00 0.00 7
20260901041624 80 311 14.0 0.0 0.01 0.00 0.00 7
20260901041124 80 314 0.0 0.0 0.01 0.00 0.00 7
20260901040624 80 314 0.0 0.0 0.01 0.00 0.00 8
20260901040126 79 314 16.0 0.0 0.01 0.00 0.00 9
20260901035624 79 291 23.0 0.0 0.01 0.00 0.00 9
20260901035124 79 274 19.0 0.0 0.01 0.00 0.00 9
20260901034624 79 285 24.0 0.0 0.01 0.00 0.00 9
20260901034124 79 304 25.0 0.0 0.01 0.00 0.00 9
20260901033624 79 273 20.0 0.0 0.01 0.00 0.00 9
20260901033124 79 274 32.0 0.0 0.01 0.00 0.00 9
20260901032624 79 276 29.0 0.0 0.01 0.00 0.00 10
20260901032124 79 255 25.0 0.0 0.01 0.00 0.00 10
20260901031624 79 263 0.0 0.0 0.01 0.00 0.00 9
20260901031124 80 263 0.0 0.0 0.01 0.00 0.00 9
20260901030624 80 263 0.0 0.0 0.01 0.00 0.00 9
20260901030124 80 263 0.0 0.0 0.01 0.00 0.00 9
20260901025624 80 285 20.0 0.0 0.01 0.00 0.00 9
20260901025124 80 319 0.0 0.0 0.01 0.00 0.00 9
20260901024624 81 290 28.0 0.0 0.01 0.00 0.00 8
20260901024124 81 304 19.0 0.0 0.01 0.00 0.00 8
20260901023624 81 280 18.0 0.0 0.01 0.00 0.00 8
20260901023124 82 277 0.0 0.0 0.01 0.00 0.00 8
20260901022624 82 277 0.0 0.0 0.01 0.00 0.00 7
20260901022124 82 277 0.0 0.0 0.01 0.00 0.00 7
20260901021624 82 273 0.0 0.0 0.01 0.00 0.00 7
20260901021125 82 246 17.0 0.0 0.01 0.00 0.00 7
20260901020624 82 269 0.0 0.0 0.01 0.00 0.00 7
20260901020124 83 253 11.0 0.0 0.01 0.00 0.00 7
20260901015624 83 276 8.0 0.0 0.01 0.00 0.00 6
20260901015124 84 287 0.0 0.0 0.01 0.00 0.00 6
20260901014624 85 248 25.0 0.0 0.01 0.00 0.00 4
20260901014124 86 312 11.0 0.0 0.01 0.00 0.00 3
20260901013624 87 293 15.0 0.0 0.01 0.00 0.00 2
20260901013124 88 300 0.0 0.0 0.01 0.00 0.00 2
20260901012623 90 260 12.0 0.0 0.01 0.00 0.00 1
20260901012124 92 294 0.0 0.0 0.01 0.00 0.00 0
20260901011624 94 180 0.0 0.0 0.01 0.00 0.00 0
20260901011124 94 180 0.0 0.0 0.01 0.00 0.00 0
20260901010624 95 180 0.0 0.0 0.01 0.00 0.00 0
20260901010124 95 180 0.0 0.0 0.01 0.00 0.00 0
20260901005624 95 180 0.0 0.0 0.01 0.00 0.00 0
20260901005124 96 180 0.0 0.0 0.01 0.00 0.00 0
20260901004624 96 180 0.0 0.0 0.01 0.00 0.00 0
20260901004124 96 180 0.0 0.0 0.01 0.00 0.00 0
20260901003624 97 180 0.0 0.0 0.01 0.00 0.00 0
20260901003124 97 180 0.0 0.0 0.01 0.00 0.00 0
20260901002624 98 180 0.0 0.0 0.01 0.00 0.00 0
20260901002124 98 180 0.0 0.0 0.01 0.00 0.00 0
20260901001624 99 180 0.0 0.0 0.01 0.00 0.00 0
20260901001124 100 180 0.0 0.0 0.01 0.00 0.00 0
20260901000624 101 180 0.0 0.0 0.01 0.00 0.00 0
20260901000125 101 180 0.0 0.0 0.01 0.00 0.00 0
20260831235624 101 180 0.0 0.0 0.01 0.00 0.00 0
20260831235125 101 180 0.0 0.0 0.01 0.00 0.00 0
20260831234624 101 180 0.0 0.0 0.01 0.00 0.00 0
20260831234124 102 180 0.0 0.0 0.01 0.00 0.00 0
20260831233624 102 180 0.0 0.0 0.01 0.00 0.00 0
20260831233123 103 180 0.0 0.0 0.01 0.00 0.00 0
20260831232624 103 180 0.0 0.0 0.01 0.00 0.00 0
20260831232124 103 180 0.0 0.0 0.01 0.00 0.00 0
20260831231624 104 180 0.0 0.0 0.01 0.00 0.00 0
20260831231124 103 180 0.0 0.0 0.01 0.00 0.00 0
20260831230623 103 180 0.0 0.0 0.01 0.00 0.00 0
20260831230125 104 180 0.0 0.0 0.01 0.00 0.00 0
20260831225624 103 180 0.0 0.0 0.01 0.00 0.00 0
20260831225124 103 180 0.0 0.0 0.01 0.00 0.00 0
20260831224624 103 180 0.0 0.0 0.01 0.00 0.00 0
20260831224124 103 180 0.0 0.0 0.01 0.00 0.00 0
20260831223624 103 180 0.0 0.0 0.01 0.00 0.00 0
20260831223124 103 180 0.0 0.0 0.01 0.00 0.00 0
20260831222624 102 180 0.0 0.0 0.01 0.00 0.00 0
20260831222124 103 180 0.0 0.0 0.01 0.00 0.00 0
20260831221623 104 180 0.0 0.0 0.01 0.00 0.00 0
20260831221124 104 180 0.0 0.0 0.01 0.00 0.00 0
20260831220623 105 180 0.0 0.0 0.01 0.00 0.00 0
20260831220124 106 180 0.0 0.0 0.01 0.00 0.00 0
20260831215623 107 180 0.0 0.0 0.01 0.00 0.00 0
20260831215124 107 180 0.0 0.0 0.01 0.00 0.00 0
20260831214624 107 359 0.0 0.0 0.01 0.00 0.00 0
20260831214124 107 359 0.0 0.0 0.01 0.00 0.00 0
20260831213624 107 359 0.0 0.0 0.01 0.00 0.00 0
20260831213123 107 359 0.0 0.0 0.01 0.00 0.00 0
20260831212624 107 359 0.0 0.0 0.01 0.00 0.00 0
20260831212124 106 359 0.0 0.0 0.01 0.00 0.00 0
20260831211623 106 359 0.0 0.0 0.01 0.00 0.00 0
20260831211124 105 359 0.0 0.0 0.01 0.00 0.00 0
20260831210623 105 359 0.0 0.0 0.01 0.00 0.00 0
20260831210123 104 359 0.0 0.0 0.01 0.00 0.00 0
20260831205624 103 359 0.0 0.0 0.01 0.00 0.00 0
20260831205124 103 359 0.0 0.0 0.01 0.00 0.00 0
20260831204624 103 359 0.0 0.0 0.01 0.00 0.00 0
20260831204124 102 359 0.0 0.0 0.01 0.00 0.00 0
20260831203624 103 359 0.0 0.0 0.01 0.00 0.00 0
20260831203125 103 359 0.0 0.0 0.01 0.00 0.00 0
20260831202623 102 359 0.0 0.0 0.01 0.00 0.00 0
20260831202123 102 359 0.0 0.0 0.01 0.00 0.00 0
20260831201624 102 359 0.0 0.0 0.01 0.00 0.00 0
20260831201124 104 359 0.0 0.0 0.01 0.00 0.00 0
20260831200624 104 359 0.0 0.0 0.01 0.00 0.00 0
20260831200124 104 359 0.0 0.0 0.01 0.00 0.00 0
20260831195624 104 359 0.0 0.0 0.01 0.00 0.00 0
20260831195123 104 359 0.0 0.0 0.01 0.00 0.00 0
20260831194625 104 359 0.0 0.0 0.01 0.00 0.00 0
20260831194123 104 359 0.0 0.0 0.01 0.00 0.00 0
20260831193624 104 359 0.0 0.0 0.01 0.00 0.00 0
20260831193125 104 359 0.0 0.0 0.01 0.00 0.00 0
20260831192624 103 359 0.0 0.0 0.01 0.00 0.00 0
20260831192123 103 359 0.0 0.0 0.01 0.00 0.00 0
20260831191624 102 359 0.0 0.0 0.01 0.00 0.00 0
20260831191125 101 359 0.0 0.0 0.01 0.00 0.00 0
20260831190624 101 359 0.0 0.0 0.01 0.00 0.00 0
20260831190125 102 359 0.0 0.0 0.01 0.00 0.00 0
20260831185623 101 359 0.0 0.0 0.01 0.00 0.00 0
20260831185124 101 359 0.0 0.0 0.01 0.00 0.00 0
20260831184625 101 359 0.0 0.0 0.01 0.00 0.00 0
20260831184124 101 359 0.0 0.0 0.01 0.00 0.00 0
20260831183625 101 359 0.0 0.0 0.01 0.00 0.00 0
20260831183124 100 359 0.0 0.0 0.01 0.00 0.00 0
20260831182623 100 359 0.0 0.0 0.01 0.00 0.00 0
20260831182124 100 359 0.0 0.0 0.01 0.00 0.00 0
20260831181623 99 359 0.0 0.0 0.01 0.00 0.00 0
20260831181124 99 359 0.0 0.0 0.01 0.00 0.00 0
20260831180624 98 359 0.0 0.0 0.01 0.00 0.00 0
20260831180124 98 359 0.0 0.0 0.01 0.00 0.00 0
20260831175623 99 359 0.0 0.0 0.01 0.00 0.00 0
20260831175123 98 359 0.0 0.0 0.01 0.00 0.00 0
20260831174624 98 359 0.0 0.0 0.01 0.00 0.00 0
20260831174124 98 359 0.0 0.0 0.01 0.00 0.00 0
20260831173624 97 359 0.0 0.0 0.01 0.00 0.00 0
20260831173124 97 359 0.0 0.0 0.01 0.00 0.00 0
20260831172624 97 359 0.0 0.0 0.01 0.00 0.00 0
20260831172124 97 359 0.0 0.0 0.01 0.00 0.00 0
20260831171624 96 359 0.0 0.0 0.01 0.00 0.00 0
20260831171124 96 359 0.0 0.0 0.01 0.00 0.00 0
20260831170623 95 359 0.0 0.0 0.01 0.00 0.00 0
20260831170124 94 359 0.0 0.0 0.01 0.00 0.00 0
20260831165625 94 359 0.0 0.0 0.01 0.00 0.00 0
20260831165123 93 359 0.0 0.0 0.01 0.00 0.00 0
20260831164624 93 359 0.0 0.0 0.01 0.00 0.00 0
20260831164123 93 359 0.0 0.0 0.01 0.00 0.00 0
20260831163624 92 359 0.0 0.0 0.01 0.00 0.00 0
20260831163125 92 359 0.0 0.0 0.01 0.00 0.00 0
20260831162624 91 359 0.0 0.0 0.01 0.00 0.00 0
20260831162124 91 359 0.0 0.0 0.01 0.00 0.00 1
20260831161624 91 359 0.0 0.0 0.01 0.00 0.00 1
20260831161124 90 359 0.0 0.0 0.01 0.00 0.00 1
20260831160624 90 359 0.0 0.0 0.01 0.00 0.00 1
20260831160124 89 359 0.0 0.0 0.01 0.00 0.00 1
20260831155624 89 359 0.0 0.0 0.01 0.00 0.00 1
20260831155123 88 359 0.0 0.0 0.01 0.00 0.00 2
20260831154624 88 359 0.0 0.0 0.01 0.00 0.00 2
20260831154124 88 359 0.0 0.0 0.01 0.00 0.00 2
20260831153623 87 359 0.0 0.0 0.01 0.00 0.00 2
20260831153123 87 359 0.0 0.0 0.01 0.00 0.00 2
20260831152624 86 359 0.0 0.0 0.01 0.00 0.00 2
20260831151624 85 359 0.0 0.0 0.01 0.00 0.00 3
20260831151124 85 359 0.0 0.0 0.01 0.00 0.00 3
20260831150623 84 359 0.0 0.0 0.01 0.00 0.00 3
20260831150124 84 359 0.0 0.0 0.01 0.00 0.00 3
20260831145623 83 359 0.0 0.0 0.01 0.00 0.00 3
20260831145123 83 359 0.0 0.0 0.01 0.00 0.00 3
20260831144624 83 359 0.0 0.0 0.01 0.00 0.00 4
20260831144124 82 359 0.0 0.0 0.01 0.00 0.00 4
20260831143624 82 359 0.0 0.0 0.01 0.00 0.00 4
20260831143124 82 359 0.0 0.0 0.01 0.00 0.00 4
20260831142624 81 359 0.0 0.0 0.01 0.00 0.00 4
20260831142125 81 359 0.0 0.0 0.01 0.00 0.00 4
20260831141124 81 359 0.0 0.0 0.01 0.00 0.00 4
20260831140624 81 359 0.0 0.0 0.01 0.00 0.00 4
20260831140125 82 359 0.0 0.0 0.01 0.00 0.00 4
20260831135623 82 359 0.0 0.0 0.01 0.00 0.00 4
20260831135124 82 359 0.0 0.0 0.01 0.00 0.00 4
20260831134624 81 359 0.0 0.0 0.01 0.00 0.00 4
20260831134123 82 359 0.0 0.0 0.01 0.00 0.00 4
20260831133624 81 359 0.0 0.0 0.01 0.00 0.00 4
20260831133124 81 359 0.0 0.0 0.01 0.00 0.00 4
20260831132623 80 359 0.0 0.0 0.01 0.00 0.00 4
20260831132125 79 359 0.0 0.0 0.01 0.00 0.00 4
20260831131624 79 359 0.0 0.0 0.01 0.00 0.00 5
20260831131124 79 359 0.0 0.0 0.01 0.00 0.00 5
20260831130624 79 359 0.0 0.0 0.01 0.00 0.00 5
20260831130125 79 359 0.0 0.0 0.01 0.00 0.00 5
20260831125624 79 359 0.0 0.0 0.01 0.00 0.00 5
20260831125124 79 359 0.0 0.0 0.01 0.00 0.00 5
20260831124625 79 359 0.0 0.0 0.01 0.00 0.00 4
20260831124124 80 359 0.0 0.0 0.01 0.00 0.00 4
20260831123624 79 359 0.0 0.0 0.01 0.00 0.00 4
20260831123124 79 359 0.0 0.0 0.01 0.00 0.00 4
20260831122624 79 359 0.0 0.0 0.01 0.00 0.00 5
20260831122124 78 359 0.0 0.0 0.01 0.00 0.00 5
20260831121623 78 359 0.0 0.0 0.01 0.00 0.00 5
20260831121124 78 359 0.0 0.0 0.01 0.00 0.00 5
20260831120623 78 359 0.0 0.0 0.01 0.00 0.00 5
20260831120123 78 359 0.0 0.0 0.01 0.00 0.00 5
20260831115624 78 359 0.0 0.0 0.01 0.00 0.00 5
20260831115123 78 359 0.0 0.0 0.01 0.00 0.00 5
20260831114623 79 359 0.0 0.0 0.01 0.00 0.00 5
20260831114124 79 359 0.0 0.0 0.01 0.00 0.00 5
20260831113124 79 359 0.0 0.0 0.01 0.00 0.00 5
20260831112623 79 359 0.0 0.0 0.01 0.00 0.00 4
20260831112124 79 359 0.0 0.0 0.01 0.00 0.00 4
20260831111623 79 359 0.0 0.0 0.01 0.00 0.00 4
20260831111124 79 359 0.0 0.0 0.01 0.00 0.00 4
20260831110623 79 359 0.0 0.0 0.01 0.00 0.00 4
20260831110124 79 359 0.0 0.0 0.01 0.00 0.00 4
20260831105623 79 359 0.0 0.0 0.01 0.00 0.00 4
20260831105123 79 359 0.0 0.0 0.01 0.00 0.00 4
20260831104624 79 359 0.0 0.0 0.01 0.00 0.00 4
20260831104122 79 359 0.0 0.0 0.01 0.00 0.00 4
20260831103624 80 359 0.0 0.0 0.01 0.00 0.00 4
20260831103124 80 359 0.0 0.0 0.01 0.00 0.00 4
20260831102623 80 359 0.0 0.0 0.01 0.00 0.00 3
20260831102123 80 359 0.0 0.0 0.01 0.00 0.00 3
20260831101624 80 359 0.0 0.0 0.01 0.00 0.00 3
20260831101123 81 359 0.0 0.0 0.01 0.00 0.00 3
20260831100624 81 359 0.0 0.0 0.01 0.00 0.00 3
20260831100124 81 359 0.0 0.0 0.01 0.00 0.00 3
20260831095623 81 359 0.0 0.0 0.01 0.00 0.00 3
20260831095123 81 359 0.0 0.0 0.01 0.00 0.00 3
20260831094623 81 359 0.0 0.0 0.01 0.00 0.00 3
20260831094123 81 359 0.0 0.0 0.01 0.00 0.00 2
20260831093623 81 359 0.0 0.0 0.01 0.00 0.00 2
20260831093124 81 359 0.0 0.0 0.01 0.00 0.00 2
20260831092623 82 359 0.0 0.0 0.01 0.00 0.00 2
20260831092123 81 359 0.0 0.0 0.01 0.00 0.00 2
20260831091623 82 359 0.0 0.0 0.01 0.00 0.00 2
20260831091122 82 359 0.0 0.0 0.01 0.00 0.00 2
20260831090623 82 359 0.0 0.0 0.01 0.00 0.00 2
20260831090123 82 359 0.0 0.0 0.01 0.00 0.00 2
20260831085623 82 359 0.0 0.0 0.01 0.00 0.00 2
20260831084623 82 359 0.0 0.0 0.01 0.00 0.00 3
20260831084123 82 359 0.0 0.0 0.01 0.00 0.00 3
20260831083622 82 359 0.0 0.0 0.01 0.00 0.00 3
20260831083122 82 359 0.0 0.0 0.01 0.00 0.00 3
20260831082623 82 359 0.0 0.0 0.01 0.00 0.00 2
20260831082123 83 359 0.0 0.0 0.01 0.00 0.00 2
20260831081622 83 359 0.0 0.0 0.01 0.00 0.00 2
20260831081123 83 359 0.0 0.0 0.01 0.00 0.00 2
20260831080623 83 359 0.0 0.0 0.01 0.00 0.00 2
20260831080123 84 359 0.0 0.0 0.01 0.00 0.00 1
20260831075622 84 359 0.0 0.0 0.01 0.00 0.00 1
20260831075122 84 359 0.0 0.0 0.01 0.00 0.00 1
20260831074622 85 359 0.0 0.0 0.01 0.00 0.00 1
20260831074123 85 359 0.0 0.0 0.01 0.00 0.00 1
20260831073622 85 359 0.0 0.0 0.01 0.00 0.00 1
20260831073122 85 359 0.0 0.0 0.01 0.00 0.00 1
20260831072623 85 359 0.0 0.0 0.01 0.00 0.00 1
20260831072122 85 359 0.0 0.0 0.01 0.00 0.00 1
20260831071623 86 359 0.0 0.0 0.01 0.00 0.00 1
20260831071122 86 359 0.0 0.0 0.01 0.00 0.00 0
20260831070623 86 359 0.0 0.0 0.01 0.00 0.00 0
20260831070124 86 359 0.0 0.0 0.01 0.00 0.00 0
20260831065623 86 359 0.0 0.0 0.01 0.00 0.00 0
20260831065123 86 359 0.0 0.0 0.01 0.00 0.00 0
20260831064622 87 359 0.0 0.0 0.01 0.00 0.00 0
20260831064122 87 359 0.0 0.0 0.01 0.00 0.00 0
20260831063623 87 359 0.0 0.0 0.01 0.00 0.00 0
20260831063122 87 359 0.0 0.0 0.01 0.00 0.00 0
20260831062622 86 359 0.0 0.0 0.01 0.00 0.00 0
20260831062122 86 359 0.0 0.0 0.01 0.00 0.00 0
20260831061622 85 359 0.0 0.0 0.01 0.00 0.00 0
20260831061122 85 359 0.0 0.0 0.01 0.00 0.00 0
20260831060623 85 359 0.0 0.0 0.01 0.00 0.00 0
20260831060122 85 359 0.0 0.0 0.01 0.00 0.00 0
20260831055622 85 359 0.0 0.0 0.01 0.00 0.00 0
20260831055123 85 359 0.0 0.0 0.01 0.00 0.00 0
20260831054623 85 359 0.0 0.0 0.01 0.00 0.00 0
20260831054123 85 359 0.0 0.0 0.01 0.00 0.00 0
20260831053623 85 359 0.0 0.0 0.01 0.00 0.00 0
20260831053123 86 359 0.0 0.0 0.01 0.00 0.00 0
20260831052622 86 359 0.0 0.0 0.01 0.00 0.00 0
20260831052122 86 359 0.0 0.0 0.01 0.00 0.00 0
20260831051622 86 359 0.0 0.0 0.01 0.00 0.00 0
20260831051123 86 359 0.0 0.0 0.01 0.00 0.00 0
20260831050623 86 359 0.0 0.0 0.01 0.00 0.00 0
20260831050123 86 359 0.0 0.0 0.01 0.00 0.00 0